Temperature
24 23 22 23 23 23 23 23 24 25 25 25 26 26 26 26 26 25 25 25 24 24 23 22 21 20 19 19 18 17 17 16 15 15 15 14 14 14 14 14 13 13 13 13
24 23 24 25 24 24 24 24 24 25 26 26 26 26 27 27 26 26 26 25 25 24 23 21 20 20 19 18 18 17 17 16 15 15 14 14 14 14 14 13 13 13 13 13
24 25 26 25 24 24 24 24 25 24 25 26 26 26 27 27 27 26 26 25 25 25 23 21 21 20 19 18 18 17 17 16 15 15 14 14 14 14 14 13 13 13 13 13
24 26 26 25 25 25 24 25 26 26 25 25 26 24 26 26 25 26 26 25 25 25 24 22 21 20 19 18 18 17 16 16 15 15 14 14 14 14 14 13 13 13 13 13
24 25 26 25 26 26 25 25 26 26 25 25 26 25 26 26 25 25 25 25 25 24 24 22 21 20 19 19 18 17 16 16 15 15 14 14 14 14 14 13 13 13 13 13
25 26 27 26 27 27 26 26 26 26 25 24 26 25 25 26 26 26 26 26 25 24 23 22 21 20 19 18 17 17 16 15 15 15 14 14 14 14 13 13 13 13 13 13
25 26 27 27 26 26 26 25 24 24 23 24 26 26 25 26 27 27 26 26 25 24 23 22 21 20 19 18 17 16 16 15 15 15 14 14 14 14 13 13 13 13 13 13
25 25 26 27 26 26 26 26 23 22 23 24 26 26 26 27 27 26 26 25 25 24 23 22 21 20 19 18 17 16 16 15 15 15 14 14 14 14 13 13 13 13 13 13
25 25 27 27 27 27 26 26 26 24 24 24 26 27 26 26 26 26 26 25 24 24 23 22 21 19 18 18 17 16 16 15 15 15 14 14 14 14 13 13 13 13 13 13
27 25 26 26 26 27 26 26 25 24 23 23 25 26 25 25 25 26 25 25 24 24 23 22 20 19 18 18 17 16 16 15 15 15 14 14 14 13 13 13 13 13 13 13
27 26 26 26 26 26 26 26 26 25 25 24 23 24 27 26 26 26 26 25 25 24 23 22 20 19 18 18 17 16 16 15 15 15 14 14 14 14 13 13 13 13 13 13
27 26 26 26 27 27 27 26 26 24 24 24 24 24 27 27 26 26 26 25 25 24 23 22 20 19 18 18 17 16 16 16 15 15 14 14 14 14 14 13 13 13 13 13
26 26 25 25 25 26 26 26 26 25 24 24 23 25 27 27 27 26 26 25 25 24 23 22 20 19 18 18 17 17 16 16 15 15 14 14 14 14 14 13 13 13 13 13
25 25 25 24 24 26 26 26 26 25 24 24 24 25 26 26 26 26 26 25 25 24 23 22 20 19 19 18 17 17 16 16 15 15 15 14 14 14 14 14 13 13 13 13
26 25 26 26 26 27 26 26 26 25 25 24 25 25 26 26 26 26 26 25 25 24 23 22 21 20 19 18 18 17 17 16 16 15 15 15 14 14 14 14 14 13 13 13
26 25 26 25 26 26 26 26 26 26 26 25 25 25 27 27 27 26 26 25 25 24 23 22 21 20 19 18 18 17 17 16 16 15 15 15 15 14 14 14 14 14 13 13
25 25 24 24 25 25 25 26 26 26 26 26 25 25 26 26 26 26 26 25 24 24 23 23 22 21 20 19 19 18 17 17 16 16 15 15 15 15 14 14 14 14 14 14
25 24 24 24 24 23 25 27 27 26 26 26 26 26 26 26 26 26 25 25 24 23 23 23 22 22 21 20 19 18 18 17 16 16 16 15 15 15 15 14 14 14 14 14
26 24 24 23 23 24 26 26 26 25 25 26 25 25 25 25 26 25 25 24 24 23 23 23 22 22 21 20 20 19 18 17 17 16 16 16 15 15 15 15 15 14 14 14
25 25 24 23 22 22 24 26 26 25 24 25 25 24 24 24 23 23 24 24 23 23 22 22 22 22 21 21 20 19 18 18 17 17 16 16 16 15 15 15 15 15 14 14
24 23 23 22 22 23 24 25 25 23 22 23 23 23 23 23 22 23 23 23 22 22 22 22 22 21 21 21 20 19 19 18 18 17 16 16 16 15 15 15 15 14 14 14
23 23 23 23 22 22 24 24 23 22 23 22 22 22 22 22 22 21 22 22 22 21 21 21 21 21 21 20 20 19 19 18 18 17 17 16 16 15 15 15 15 14 14 14
23 23 22 23 22 23 23 22 21 21 21 21 20 20 20 20 20 20 21 21 21 21 21 20 20 20 20 20 20 19 19 18 18 17 17 16 16 15 15 15 15 14 14 13
22 22 22 21 22 22 21 21 20 20 19 19 19 19 19 19 19 19 19 20 20 20 20 20 20 19 19 19 19 19 19 18 18 17 17 16 16 15 15 15 14 14 14 13
19 20 20 20 20 20 20 19 18 18 18 18 18 18 18 18 18 18 18 19 19 19 19 19 19 19 19 19 19 19 18 18 18 17 17 16 15 15 15 14 14 14 14 13
18 18 18 18 18 18 18 17 17 17 17 17 17 17 17 17 17 17 17 18 18 18 18 18 18 18 18 18 18 18 18 18 17 17 16 16 15 15 15 14 14 13 13 13
Wind_Speed
10 9 9 10 9 7 5 6 5 2 4 6 7 8 6 9 9 9 9 9 10 10 10 9 9 7 6 5 4 5 3 3 3 3 2 2 2 2 2 2 2 3 4 5
9 11 11 10 9 9 7 8 7 2 2 5 7 9 7 8 10 9 8 9 9 10 11 11 9 8 5 5 3 3 4 4 4 2 1 1 2 2 1 1 2 3 4 3
9 8 10 9 8 8 9 6 6 4 7 9 9 9 8 7 7 7 6 5 5 8 11 13 10 9 6 5 4 3 3 4 4 2 1 2 2 2 1 2 2 2 2 2
4 4 6 7 7 6 4 4 6 6 7 6 6 6 5 7 8 8 7 6 5 6 8 11 10 9 7 6 5 4 4 3 4 3 2 2 2 2 2 2 1 3 1 2
4 4 6 5 4 4 1 3 7 9 9 9 10 7 2 8 8 9 9 8 7 6 8 9 10 8 7 7 5 3 4 4 4 3 2 2 2 2 2 2 2 3 2 2
3 4 3 2 2 3 3 6 9 10 8 8 6 4 2 3 4 5 8 8 8 8 8 8 9 8 7 7 6 3 4 4 4 1 1 1 1 2 3 3 3 3 1 1
5 5 3 2 3 4 5 6 4 3 3 3 2 2 1 6 6 5 5 6 7 8 8 9 9 9 8 8 6 4 4 4 4 2 2 1 1 1 2 2 2 3 2 2
4 5 6 5 4 2 5 6 2 3 5 6 5 3 5 9 7 6 4 4 5 7 7 9 10 9 9 8 7 5 5 4 4 3 1 1 2 0 1 2 2 2 2 2
1 3 6 4 3 4 5 4 3 5 10 8 4 2 7 8 7 6 5 5 5 6 7 8 10 10 9 9 8 6 6 5 4 3 1 1 1 1 1 1 2 2 2 2
2 3 6 5 4 6 6 7 4 4 5 6 6 3 4 6 5 5 6 6 7 7 7 8 9 9 9 8 8 7 6 5 5 3 2 2 1 1 0 1 2 3 3 2
6 2 4 7 6 6 7 6 5 5 6 5 5 4 4 5 4 2 3 5 7 8 8 8 9 9 9 9 8 7 7 6 5 4 3 3 2 1 1 1 1 1 2 2
5 4 4 7 5 1 4 6 6 5 6 6 6 2 3 5 4 3 3 3 5 7 8 9 9 9 9 9 8 8 7 7 6 4 3 3 3 2 1 0 0 1 1 1
8 5 4 2 1 3 5 6 6 6 7 8 8 3 2 2 2 3 4 5 6 8 8 9 9 9 9 9 8 8 7 7 7 5 4 3 4 3 2 0 0 1 2 1
4 8 8 7 7 6 6 7 7 7 7 9 10 9 6 5 3 3 3 6 7 9 9 9 9 9 9 9 9 8 8 8 8 7 5 4 3 4 3 1 0 1 2 2
5 9 10 11 11 11 11 11 10 11 11 12 12 12 10 7 5 4 3 4 6 8 10 11 11 10 10 10 9 9 8 9 8 8 6 5 4 4 3 2 1 0 1 2
6 10 12 13 13 13 14 13 12 12 12 13 13 12 9 7 5 4 3 4 5 7 9 10 12 12 12 11 11 10 9 9 9 9 8 6 4 4 4 3 2 2 1 1
10 12 13 13 13 14 12 9 8 8 9 9 10 9 8 7 6 4 3 2 4 5 7 9 11 12 12 12 12 11 10 10 9 9 8 8 6 5 4 4 3 2 2 2
13 13 10 12 13 13 6 4 5 7 8 7 7 7 8 7 6 2 2 2 3 4 5 8 9 10 11 11 11 11 10 10 10 9 9 8 7 6 5 4 3 3 3 3
11 10 9 10 12 11 8 5 4 5 6 7 7 8 9 9 6 2 3 2 2 3 3 5 7 9 11 11 11 11 11 11 10 9 9 9 9 7 7 6 5 4 3 2
5 7 8 9 11 11 6 5 4 4 3 9 9 10 10 9 6 6 8 4 3 1 2 3 5 6 9 10 11 12 12 11 11 10 9 9 9 8 7 6 5 4 3 4
6 6 8 10 12 8 5 6 5 3 6 10 11 11 11 9 8 9 9 6 4 2 1 2 4 5 6 9 10 11 11 12 11 10 9 8 8 8 7 6 4 4 4 3
10 8 8 8 10 4 8 6 6 7 9 11 12 11 11 11 10 11 10 7 5 3 2 2 3 4 5 7 10 10 10 10 10 10 9 8 8 8 7 6 5 4 3 3
8 7 7 8 6 6 6 6 8 10 12 12 12 12 13 12 11 11 10 8 5 4 3 3 4 5 5 7 9 10 9 9 11 11 10 9 8 7 6 6 5 4 3 3
12 12 12 12 11 11 10 11 10 12 12 13 13 13 13 13 13 12 11 9 7 5 4 4 5 6 6 7 9 9 9 11 11 11 10 9 8 8 7 5 4 3 2 2
13 13 14 16 14 13 11 13 15 16 15 14 14 13 13 13 14 13 12 11 8 6 5 5 6 7 8 8 8 9 10 12 11 12 11 10 8 8 7 5 3 3 3 2
13 13 12 12 12 12 14 14 16 16 16 16 15 14 13 13 14 14 12 10 10 9 7 6 7 7 8 8 9 9 10 12 12 11 11 9 8 8 8 8 6 9 7 8
Wind_Direction
181 193 200 206 206 221 263 278 280 243 202 235 257 263 232 198 193 205 204 203 195 184 167 148 142 139 143 138 118 114 113 101 84 57 3 358 347 326 1 352 23 342 345 349
182 206 201 198 198 223 249 268 276 309 269 262 269 269 246 203 196 203 213 210 200 174 159 145 151 148 159 144 131 126 107 90 87 83 351 312 350 324 355 333 351 350 353 348
189 206 196 191 202 219 240 262 300 320 292 274 274 271 245 191 187 185 205 225 211 175 165 157 160 152 159 152 143 131 115 118 105 99 41 2 348 301 341 350 25 341 338 346
205 208 190 199 208 227 257 304 299 294 291 299 287 293 266 169 171 184 187 204 215 172 154 150 153 155 161 152 140 144 128 112 101 92 66 333 304 2 3 352 10 314 359 7
167 194 196 205 214 234 264 284 288 284 283 285 275 275 266 150 172 184 181 188 191 168 152 149 152 154 154 139 132 132 120 107 95 84 113 288 352 8 354 344 5 336 27 1
144 185 196 199 204 247 277 275 267 256 262 269 268 276 315 132 138 149 158 168 169 162 151 149 145 140 134 123 125 129 124 112 111 137 195 203 28 2 340 351 2 331 336 359
167 163 152 186 202 204 248 276 302 292 242 281 340 266 173 98 91 99 130 153 152 151 153 151 145 142 139 137 143 154 150 140 142 189 217 135 84 335 346 0 343 326 351 11
161 158 168 196 238 242 242 257 276 317 318 313 275 230 113 109 101 99 106 115 134 148 154 155 150 148 148 151 157 167 158 153 155 198 196 132 123 296 21 10 327 345 4 358
336 131 147 179 248 281 271 269 288 286 290 289 281 126 120 121 129 145 158 156 169 162 154 153 151 152 155 160 163 169 164 168 163 188 175 125 103 84 33 326 323 355 346 0
316 135 170 172 230 240 277 307 310 290 307 309 315 337 98 123 133 157 180 182 183 168 162 159 156 158 160 163 164 167 169 170 162 175 193 144 110 90 39 327 17 1 352 9
308 271 181 181 219 236 220 252 271 282 280 297 319 351 61 101 103 146 198 185 180 170 165 162 158 160 160 159 163 170 174 173 160 171 180 141 151 184 240 209 52 310 322 352
327 307 252 217 200 242 284 287 292 296 306 311 303 317 92 115 130 166 197 188 173 162 160 159 159 161 163 168 174 177 178 170 159 169 170 166 169 175 238 215 138 303 327 339
345 311 309 304 170 211 247 252 267 286 288 285 286 287 145 152 174 193 194 185 176 165 164 164 162 167 170 175 179 178 175 165 156 164 178 186 173 169 195 216 238 301 323 328
305 291 295 292 297 297 279 276 268 267 273 281 287 297 303 315 313 286 224 194 183 177 175 172 170 174 175 178 182 182 175 165 164 169 183 194 184 167 177 175 210 309 327 338
276 286 294 297 297 295 287 284 277 268 269 278 289 296 305 312 306 285 257 218 194 188 185 181 177 180 179 181 185 184 177 172 173 171 181 191 190 170 167 164 172 223 331 340
288 293 298 293 293 292 285 277 268 265 266 270 278 284 297 304 308 297 263 238 212 200 198 192 185 185 185 187 188 185 179 177 175 175 179 177 185 170 167 176 180 195 206 305
294 296 301 298 301 295 282 283 281 280 284 285 287 300 315 312 305 299 286 244 228 218 209 200 193 189 188 191 188 184 180 178 178 178 176 174 182 178 176 187 183 195 194 216
270 282 288 291 294 285 293 304 291 292 293 300 306 324 330 316 305 319 325 286 239 229 218 204 197 190 186 188 182 176 173 176 180 180 175 174 177 179 179 186 195 204 207 197
248 264 274 279 283 285 294 314 334 322 320 347 345 352 351 345 325 333 359 334 291 249 230 213 202 190 184 185 178 173 175 179 182 180 178 176 177 180 182 188 196 198 213 220
252 255 261 272 283 287 316 4 2 311 316 13 7 6 359 356 344 342 350 347 323 297 241 221 202 194 185 181 173 175 180 182 184 179 180 178 175 173 180 189 191 189 200 213
280 265 254 267 275 283 5 12 342 316 8 11 9 7 3 354 343 337 343 345 326 313 266 229 210 201 189 175 169 179 184 188 181 172 173 170 165 169 178 182 184 196 201 200
301 296 288 281 277 292 28 9 5 355 358 3 359 357 352 342 338 338 336 331 318 307 259 228 225 212 193 177 174 185 192 183 163 158 162 166 167 176 178 171 184 199 190 197
288 298 308 304 314 346 2 4 1 356 349 351 351 348 343 336 332 330 325 318 303 284 262 232 231 221 204 190 184 192 188 165 155 157 164 169 171 172 163 165 178 188 189 198
300 318 311 303 308 326 338 348 353 353 345 341 341 338 336 330 327 325 322 316 304 280 257 234 227 222 216 204 196 196 177 164 161 165 170 173 176 169 161 157 164 166 172 185
305 308 300 296 309 321 335 347 347 342 339 335 331 327 326 323 320 319 316 313 309 295 271 241 231 227 222 212 204 195 180 170 173 174 176 178 174 163 152 128 93 116 88 111
281 290 291 296 319 319 322 334 338 335 333 331 328 325 324 322 318 315 312 311 307 301 285 267 243 232 227 219 210 196 187 179 182 184 181 176 167 158 148 136 109 67 89 90
Height
1467 1471 1475 1474 1474 1477 1479 1481 1480 1476 1471 1472 1472 1470 1468 1470 1473 1476 1478 1481 1483 1486 1490 1492 1495 1498 1500 1501 1502 1501 1501 1501 1500 1499 1498 1497 1497 1496 1495 1494 1493 1492 1491 1489
1469 1471 1467 1468 1470 1474 1478 1481 1478 1472 1468 1469 1469 1467 1463 1464 1468 1472 1474 1477 1479 1483 1486 1490 1493 1496 1499 1500 1501 1501 1500 1500 1499 1498 1497 1497 1496 1495 1494 1493 1492 1491 1490 1488
1469 1465 1462 1466 1470 1475 1476 1477 1476 1476 1473 1466 1468 1469 1462 1460 1464 1468 1472 1475 1477 1480 1484 1487 1491 1494 1497 1498 1499 1500 1499 1499 1498 1497 1496 1496 1495 1494 1493 1492 1491 1490 1489 1488
1466 1461 1462 1467 1469 1471 1478 1471 1470 1471 1476 1476 1470 1482 1465 1459 1464 1466 1470 1473 1476 1478 1482 1485 1488 1492 1494 1496 1497 1498 1498 1498 1497 1496 1495 1495 1495 1494 1493 1492 1490 1489 1488 1487
1468 1463 1464 1468 1468 1468 1471 1469 1468 1469 1473 1476 1470 1475 1467 1458 1464 1464 1467 1471 1474 1477 1480 1483 1487 1490 1493 1494 1495 1496 1496 1496 1495 1495 1494 1494 1494 1493 1492 1491 1490 1489 1488 1486
1464 1463 1463 1464 1464 1465 1466 1468 1467 1468 1473 1485 1470 1475 1474 1462 1461 1461 1463 1468 1472 1475 1479 1482 1485 1488 1491 1492 1493 1495 1495 1495 1494 1494 1494 1494 1493 1493 1492 1491 1490 1489 1488 1486
1466 1463 1462 1463 1466 1467 1469 1477 1489 1490 1490 1485 1465 1471 1470 1459 1457 1460 1463 1466 1470 1473 1477 1480 1483 1486 1489 1490 1491 1493 1493 1493 1493 1493 1493 1493 1493 1492 1492 1491 1490 1489 1488 1486
1471 1474 1465 1464 1466 1469 1469 1474 1496 1508 1500 1485 1468 1469 1463 1455 1457 1461 1464 1467 1469 1472 1476 1479 1481 1484 1486 1488 1490 1491 1491 1492 1492 1492 1493 1493 1492 1492 1491 1490 1490 1489 1487 1486
1469 1472 1462 1463 1463 1465 1470 1471 1471 1483 1483 1484 1470 1459 1459 1455 1459 1462 1465 1467 1470 1472 1474 1477 1479 1482 1484 1486 1487 1489 1490 1490 1491 1491 1492 1492 1492 1491 1491 1490 1489 1489 1488 1486
1460 1471 1465 1464 1466 1465 1467 1467 1474 1483 1492 1494 1478 1467 1467 1463 1461 1461 1463 1466 1468 1471 1473 1475 1477 1480 1482 1484 1485 1487 1488 1489 1489 1490 1490 1491 1491 1490 1490 1490 1489 1488 1487 1486
1458 1467 1469 1467 1469 1467 1468 1469 1470 1474 1476 1489 1493 1481 1457 1458 1458 1460 1461 1463 1465 1468 1471 1473 1475 1478 1480 1482 1483 1485 1486 1487 1488 1488 1489 1489 1489 1489 1489 1489 1488 1488 1487 1487
1459 1464 1470 1465 1458 1459 1463 1466 1470 1483 1483 1478 1485 1479 1453 1454 1455 1457 1459 1461 1463 1465 1468 1470 1473 1475 1477 1479 1481 1482 1484 1485 1486 1487 1488 1488 1488 1488 1489 1489 1488 1488 1487 1487
1465 1468 1477 1477 1473 1466 1465 1464 1465 1470 1476 1480 1485 1477 1453 1453 1454 1455 1456 1458 1460 1463 1465 1468 1470 1472 1474 1476 1478 1480 1481 1483 1483 1485 1486 1486 1487 1487 1488 1488 1488 1488 1487 1487
1469 1468 1475 1484 1477 1466 1466 1463 1463 1468 1478 1478 1474 1467 1456 1453 1453 1453 1454 1455 1457 1459 1462 1464 1467 1469 1471 1473 1475 1477 1479 1480 1481 1482 1483 1485 1485 1486 1486 1487 1487 1487 1487 1487
1466 1469 1466 1463 1459 1459 1460 1461 1461 1464 1466 1471 1466 1462 1455 1451 1450 1450 1451 1452 1453 1456 1458 1460 1463 1465 1468 1470 1472 1474 1476 1477 1479 1480 1481 1482 1484 1485 1485 1485 1486 1486 1486 1486
1464 1467 1465 1465 1458 1457 1459 1456 1456 1457 1457 1458 1458 1456 1448 1447 1447 1448 1448 1449 1451 1452 1454 1456 1459 1461 1463 1466 1468 1471 1473 1475 1476 1478 1479 1480 1482 1483 1483 1484 1484 1485 1485 1485
1467 1468 1471 1471 1461 1460 1463 1453 1451 1452 1450 1451 1456 1452 1445 1445 1445 1446 1446 1447 1448 1449 1451 1452 1454 1456 1459 1461 1464 1466 1469 1472 1474 1475 1476 1478 1479 1480 1481 1482 1483 1483 1484 1484
1466 1467 1469 1469 1469 1477 1458 1444 1444 1448 1447 1446 1446 1445 1444 1444 1443 1444 1445 1445 1446 1446 1447 1448 1450 1452 1454 1458 1460 1463 1466 1468 1470 1472 1474 1475 1477 1478 1479 1480 1481 1482 1482 1483
1459 1464 1469 1471 1474 1466 1452 1445 1444 1449 1450 1446 1446 1445 1445 1443 1442 1443 1443 1444 1444 1444 1444 1445 1446 1448 1451 1454 1456 1459 1462 1465 1467 1469 1471 1472 1474 1475 1476 1478 1479 1480 1480 1481
1456 1459 1466 1469 1475 1475 1457 1446 1444 1448 1454 1449 1448 1447 1447 1445 1448 1446 1443 1442 1442 1442 1442 1443 1444 1445 1447 1450 1453 1455 1458 1460 1462 1465 1467 1469 1471 1472 1474 1475 1476 1477 1478 1479
1462 1462 1467 1469 1470 1461 1452 1449 1447 1460 1462 1453 1451 1451 1450 1450 1451 1448 1445 1443 1442 1441 1440 1441 1441 1443 1444 1446 1449 1451 1454 1456 1458 1461 1464 1466 1468 1469 1471 1472 1473 1474 1475 1476
1466 1467 1465 1464 1468 1467 1454 1453 1457 1460 1456 1454 1454 1453 1452 1451 1449 1447 1445 1443 1441 1440 1439 1439 1439 1440 1441 1443 1445 1447 1450 1452 1455 1457 1460 1462 1464 1466 1467 1469 1470 1471 1472 1473
1462 1462 1461 1461 1463 1457 1456 1457 1459 1458 1457 1456 1455 1454 1453 1450 1448 1446 1444 1442 1440 1439 1437 1437 1436 1437 1438 1439 1441 1443 1445 1448 1450 1453 1455 1458 1460 1462 1464 1465 1467 1468 1469 1470
1463 1461 1461 1460 1456 1456 1457 1457 1457 1458 1457 1456 1455 1454 1452 1450 1447 1445 1442 1440 1438 1436 1435 1434 1434 1433 1434 1435 1436 1438 1441 1443 1446 1448 1451 1453 1456 1458 1460 1461 1463 1464 1465 1466
1470 1467 1464 1461 1459 1458 1457 1458 1458 1457 1456 1454 1453 1452 1450 1448 1445 1443 1440 1438 1435 1433 1432 1431 1430 1429 1429 1430 1432 1434 1436 1438 1441 1443 1446 1448 1451 1453 1455 1457 1459 1460 1461 1463
1470 1469 1467 1465 1463 1463 1460 1459 1458 1456 1455 1453 1451 1449 1447 1446 1443 1440 1437 1435 1432 1430 1428 1426 1426 1425 1425 1426 1427 1428 1430 1433 1435 1438 1440 1443 1446 1448 1450 1452 1454 1456 1458 1459